Location: Jalan Sepang
(2.8072°N, 101.8021°E)
Time: 05:33:29
(UTC+00:00)

ATLAS 5 CENTAUR R/B - Pass Details

Date: 15 May 2026
Orbit: 359 x 1061 km, 63.3° (Epoch: 7 June)

Event Time Altitude Azimuth Distance (km) Brightness Sun altitude
Rises 12:30:26 0° 312° (NW) 3,372 6.6 -18.2°
Reaches altitude 10° 12:33:08 10° 299° (WNW) 2,548 5.9 -18.8°
Maximum altitude 12:38:05 26° 245° (WSW) 1,803 4.3 -20.0°
Drops below altitude 10° 12:43:33 10° 191° (S) 2,835 4.8 -21.2°
Sets 12:46:46 0° 179° (S) 3,830 5.4 -22.0°
